Date_and_time,latitude,longitude,wind_speed,RelWindDirFrom,WindDirFrom,air_pressure,air_temperature,relative_humidity,Temp,platform_speed_wrt_ground,air_pressure_at_mean_sea_level,platform_orientation
2018-06-18 23:40,50.911725,-96.9825216666667,1.0,2.1,160,991.22,25.2,29,20.07,0.0,1016.91,104.4
2018-06-18 23:50,50.9117216666667,-96.9825183333333,1.0,1.9,163,991.16,25.9,28,20.08,0.0,1016.80,104.4
2018-06-19 00:00,50.91172,-96.982515,1.1,2.2,187,991.12,26.2,30,20.09,0.0,1016.75,170.2
2018-06-19 00:10,50.9117233333333,-96.9825183333333,1.4,2.4,190,991.11,26.4,29,20.11,0.0,1016.72,170.2
2018-06-19 00:20,50.9117383333333,-96.98254,1.5,2.4,188,991.09,26.5,27,20.11,0.0,1016.70,170.2
2018-06-19 00:30,50.91174,-96.9825066666667,1.2,2.2,176,991.05,26.4,30,20.12,0.0,1016.66,170.2
2018-06-19 00:40,50.91174,-96.9825083333333,1.4,2.3,162,991.07,26.2,28,20.13,0.0,1016.67,170.2
2018-06-19 00:50,50.9117366666667,-96.98252,1.2,2.0,166,991.06,26.1,27,20.13,0.0,1016.65,170.2
2018-06-19 01:00,50.9117416666667,-96.9824983333333,0.7,1.5,165,991.10,26.3,28,20.13,0.0,1016.67,40.6
2018-06-19 01:10,50.9117383333333,-96.9825083333333,0.7,1.4,140,991.05,26.4,31,20.11,0.0,1016.60,40.6
2018-06-19 01:20,50.911735,-96.982515,0.8,1.6,103,991.02,27.0,25,20.08,0.0,1016.52,40.6
2018-06-19 01:30,50.9117316666667,-96.9825166666667,0.2,0.8,146,991.05,26.5,29,20.07,0.0,1016.56,40.6
2018-06-19 01:40,50.9117316666667,-96.9825183333333,0.0,0.3,0,990.92,26.4,33,20.05,0.0,1016.40,40.6
2018-06-19 01:50,50.9117483333333,-96.9825433333333,0.2,1.0,248,990.88,25.6,29,20.04,0.0,1016.38,40.6
2018-06-19 02:00,50.9117366666667,-96.98253,0.5,1.5,267,990.88,25.4,30,20.01,0.0,1016.38,12.9
2018-06-19 02:10,50.9117233333333,-96.9825183333333,1.3,1.6,271,990.88,24.6,29,19.98,0.0,1016.41,12.9
2018-06-19 02:20,50.9117416666667,-96.9825166666667,1.6,2.3,306,990.85,24.1,30,19.94,0.0,1016.40,12.9
2018-06-19 02:30,50.9117466666667,-96.982525,1.9,2.3,315,990.87,23.3,29,19.90,0.0,1016.47,12.9
2018-06-19 02:40,50.91172,-96.9825283333333,1.8,2.6,326,990.88,22.7,29,19.86,0.0,1016.51,12.9
2018-06-19 02:50,50.9117333333333,-96.9825283333333,1.8,2.5,316,990.96,21.9,33,19.92,0.0,1016.62,12.9
2018-06-19 03:00,50.9117216666667,-96.9825216666667,1.2,1.7,326,990.99,22.3,29,19.77,0.0,1016.62,270.0
2018-06-19 03:10,50.9117266666667,-96.9825233333333,0.5,1.6,346,991.07,22.7,29,19.72,0.0,1016.66,270.0
2018-06-19 03:20,50.91173,-96.9825283333333,1.5,2.5,300,991.15,21.5,34,19.68,0.0,1016.83,270.0
2018-06-19 03:30,50.91173,-96.9825283333333,1.8,2.7,300,991.25,21.0,35,19.64,0.0,1016.95,270.0
2018-06-19 03:40,50.91173,-96.9825283333333,2.7,3.2,295,991.31,21.1,31,19.60,0.0,1017.05,270.0
2018-06-19 03:50,50.91175,-96.9825383333333,1.9,2.9,294,991.35,21.8,28,19.56,0.0,1017.07,270.0
2018-06-19 04:00,50.9117383333333,-96.9825233333333,3.5,6.0,262,991.43,21.4,29,19.52,0.0,1017.20,270.0
2018-06-19 04:10,50.9117316666667,-96.982525,4.2,4.8,273,991.50,19.9,35,19.49,0.0,1017.36,270.0
2018-06-19 04:20,50.9117316666667,-96.9825266666667,4.1,4.8,275,991.53,19.3,37,19.46,0.0,1017.45,270.0
2018-06-19 04:30,50.911735,-96.98252,4.5,6.3,283,991.50,18.4,39,19.43,0.0,1017.49,270.0
2018-06-19 04:40,50.9117383333333,-96.9824566666667,5.0,6.2,275,991.42,18.5,40,19.40,0.0,1017.43,270.0
2018-06-19 04:50,50.91174,-96.9825216666667,5.5,7.2,253,991.38,19.5,38,19.37,0.0,1017.33,270.0
2018-06-19 05:00,50.9117283333333,-96.9825466666667,5.7,7.3,250,991.38,19.7,39,19.34,0.0,1017.30,248.2
2018-06-19 05:10,50.9117283333333,-96.982525,5.9,7.5,252,991.34,19.8,40,19.32,0.0,1017.32,248.2
2018-06-19 05:20,50.91173,-96.9825233333333,6.2,8.1,256,991.33,19.5,42,19.29,0.0,1017.34,248.2
2018-06-19 05:30,50.91173,-96.9825216666667,6.4,7.9,250,991.31,19.1,44,19.27,0.0,1017.33,248.2
2018-06-19 05:40,50.9117283333333,-96.9825233333333,6.5,8.2,248,991.27,19.1,45,19.26,0.0,1017.26,248.2
2018-06-19 05:50,50.9117283333333,-96.9825283333333,6.7,8.5,246,991.28,19.2,45,19.24,0.0,1017.29,248.2
2018-06-19 06:00,50.9117266666667,-96.98253,6.5,8.1,247,991.42,18.7,46,19.22,0.0,1017.51,360.0
2018-06-19 06:10,50.9117283333333,-96.9825283333333,5.6,7.8,252,991.37,18.5,47,19.21,0.0,1017.50,360.0
2018-06-19 06:20,50.9117283333333,-96.9825283333333,5.9,7.9,253,991.37,18.3,47,19.19,0.0,1017.55,360.0
2018-06-19 06:30,50.911715,-96.9825183333333,5.8,7.2,254,991.30,18.3,47,19.17,0.0,1017.48,360.0
2018-06-19 06:40,50.9117216666667,-96.98252,6.1,8.0,252,991.26,18.3,47,19.16,0.0,1017.40,360.0
2018-06-19 06:50,50.9116933333333,-96.9825483333333,6.7,8.9,253,991.24,18.3,45,19.14,0.0,1017.36,360.0
2018-06-19 07:00,50.9117133333333,-96.9825416666667,6.5,8.8,254,991.19,18.5,45,19.11,0.0,1017.30,360.0
2018-06-19 07:10,50.9117183333333,-96.9825266666667,6.2,7.8,258,991.17,18.4,46,19.09,0.0,1017.29,360.0
2018-06-19 07:20,50.9117266666667,-96.98253,5.3,7.3,265,991.19,18.0,48,19.08,0.0,1017.34,360.0
2018-06-19 07:30,50.9117266666667,-96.982525,4.5,5.3,281,991.18,17.1,52,19.07,0.0,1017.38,360.0
2018-06-19 07:40,50.911725,-96.982525,4.8,5.8,279,991.20,16.2,54,19.06,0.0,1017.43,360.0
2018-06-19 07:50,50.9117283333333,-96.9825333333333,5.0,5.8,283,991.20,16.0,55,19.04,0.0,1017.46,360.0
2018-06-19 08:00,50.9117266666667,-96.9825316666667,5.0,5.8,284,991.15,15.7,57,19.01,0.0,1017.43,90.0
2018-06-19 08:10,50.9117266666667,-96.9825316666667,5.3,6.7,282,991.17,15.7,58,18.98,0.0,1017.47,90.0
2018-06-19 08:20,50.91173,-96.982535,5.0,5.9,279,991.17,15.8,59,18.94,0.0,1017.47,90.0
2018-06-19 08:30,50.9117333333333,-96.9825333333333,5.3,6.0,285,991.12,15.8,61,18.91,0.0,1017.41,90.0
2018-06-19 08:40,50.911735,-96.9825366666667,5.5,6.0,281,991.04,15.7,61,18.88,0.0,1017.33,90.0
2018-06-19 08:50,50.911735,-96.982535,5.2,5.9,287,990.99,15.5,63,18.85,0.0,1017.29,90.0
2018-06-19 09:00,50.9117333333333,-96.9825333333333,4.6,5.3,293,990.97,15.2,64,18.82,0.0,1017.28,270.0
2018-06-19 09:10,50.9117333333333,-96.9825333333333,4.3,5.5,298,990.89,15.1,63,18.79,0.0,1017.22,270.0
2018-06-19 09:20,50.9117116666667,-96.9825183333333,4.5,5.5,300,990.83,15.1,63,18.76,0.0,1017.20,270.0
2018-06-19 09:30,50.9117316666667,-96.9825166666667,4.1,5.7,312,990.87,14.7,66,18.73,0.0,1017.31,270.0
2018-06-19 09:40,50.9117316666667,-96.9825233333333,2.5,6.0,85,991.09,15.1,71,18.70,0.0,1017.52,270.0
2018-06-19 09:50,50.9117316666667,-96.982525,1.6,2.5,65,991.17,16.3,71,18.68,0.0,1017.56,270.0
2018-06-19 10:00,50.91173,-96.98253,2.3,4.1,291,991.14,15.8,70,18.66,0.0,1017.55,26.6
2018-06-19 10:10,50.91173,-96.9825233333333,0.2,2.8,306,991.29,15.9,70,18.64,0.0,1017.70,26.6
2018-06-19 10:20,50.91173,-96.9825233333333,3.0,4.0,292,991.28,16.2,69,18.61,0.0,1017.67,26.6
2018-06-19 10:30,50.91173,-96.9825216666667,1.7,3.8,329,991.35,15.9,69,18.58,0.0,1017.76,26.6
2018-06-19 10:40,50.911735,-96.9825083333333,0.8,3.4,297,991.31,16.6,68,18.55,0.0,1017.70,26.6
2018-06-19 10:50,50.9117316666667,-96.9825166666667,0.7,4.2,213,991.30,16.0,71,18.52,0.0,1017.74,26.6
2018-06-19 11:00,50.9117283333333,-96.9825216666667,1.5,4.2,195,991.34,15.6,81,18.51,0.0,1017.80,90.0
2018-06-19 11:10,50.9117233333333,-96.9824916666667,2.1,3.4,183,991.37,15.6,83,18.50,0.0,1017.82,90.0
2018-06-19 11:20,50.91173,-96.98252,1.3,2.7,245,991.30,15.8,79,18.50,0.0,1017.76,90.0
2018-06-19 11:30,50.9117283333333,-96.9825216666667,1.6,3.1,230,991.30,16.0,75,18.50,0.0,1017.74,90.0
2018-06-19 11:40,50.9117283333333,-96.9825216666667,2.1,2.8,197,991.42,16.8,69,18.51,0.0,1017.76,90.0
2018-06-19 11:50,50.9117283333333,-96.982525,1.0,2.6,203,991.36,17.3,67,18.52,0.0,1017.71,90.0
2018-06-19 12:00,50.91173,-96.98252,0.7,1.8,221,991.40,17.4,67,18.52,0.0,1017.73,90.0
2018-06-19 12:10,50.91173,-96.9825216666667,1.6,2.9,211,991.43,17.2,68,18.52,0.0,1017.76,90.0
2018-06-19 12:20,50.9117316666667,-96.9825216666667,1.7,2.7,266,991.43,17.5,68,18.53,0.0,1017.77,90.0
2018-06-19 12:30,50.91172,-96.982535,2.1,3.0,287,991.35,17.4,72,18.53,0.0,1017.65,90.0
2018-06-19 12:40,50.9117416666667,-96.9825233333333,1.7,2.6,327,991.34,18.1,72,18.54,0.0,1017.64,90.0
2018-06-19 12:50,50.9117483333333,-96.9825183333333,0.8,2.2,325,991.41,19.0,70,18.55,0.0,1017.69,90.0
2018-06-19 13:00,50.9117416666667,-96.98252,0.0,0.6,0,991.46,19.5,65,18.57,0.0,1017.71,12.9
2018-06-19 13:10,50.9117366666667,-96.98252,0.1,0.5,312,991.41,20.5,58,18.59,0.0,1017.61,12.9
2018-06-19 13:20,50.9117266666667,-96.9825183333333,0.1,1.2,173,991.36,21.3,56,18.62,0.0,1017.51,12.9
2018-06-19 13:30,50.911735,-96.9825166666667,0.3,1.4,131,991.30,22.4,47,18.66,0.0,1017.37,12.9
2018-06-19 13:40,50.9117,-96.9825183333333,1.3,2.1,122,991.28,22.5,46,18.71,0.0,1017.31,12.9
2018-06-19 13:50,50.9117366666667,-96.9824683333333,2.4,3.3,145,991.22,21.2,50,18.77,0.0,1017.31,12.9
2018-06-19 14:00,50.9117283333333,-96.982535,3.1,3.4,165,991.16,20.7,53,18.80,0.0,1017.28,270.0
2018-06-19 14:10,50.9117316666667,-96.9825166666667,2.5,3.2,167,991.13,20.8,50,18.83,0.0,1017.24,270.0
2018-06-19 14:20,50.9117233333333,-96.9825266666667,1.9,2.6,165,991.10,20.9,50,18.86,0.0,1017.20,270.0
2018-06-19 14:30,50.91172,-96.98253,2.1,2.6,179,991.11,20.9,52,18.89,0.0,1017.18,270.0
2018-06-19 14:40,50.911725,-96.98253,2.5,3.1,166,991.13,20.9,53,18.91,0.0,1017.16,270.0
2018-06-19 14:50,50.9117233333333,-96.9825266666667,2.1,2.6,161,991.14,20.8,52,18.93,0.0,1017.16,270.0
2018-06-19 15:00,50.9117233333333,-96.9825283333333,3.1,4.1,152,991.18,20.8,58,18.94,0.0,1017.15,227.9
2018-06-19 15:10,50.9117233333333,-96.9825283333333,2.1,3.0,140,991.13,20.9,60,18.98,0.0,1017.06,227.9
2018-06-19 15:20,50.9117233333333,-96.9825283333333,1.7,2.3,113,991.01,21.7,58,19.02,0.0,1016.85,227.9
2018-06-19 15:30,50.911725,-96.9825283333333,3.0,5.9,126,991.07,21.5,61,19.07,0.0,1016.91,227.9
2018-06-19 15:40,50.91174,-96.9825083333333,2.8,4.1,118,991.06,21.6,63,19.11,0.0,1016.96,227.9
2018-06-19 15:50,50.9117366666667,-96.9825116666667,2.8,3.7,130,991.03,20.7,71,19.14,0.0,1016.99,227.9
2018-06-19 16:00,50.9117016666667,-96.982535,2.7,3.8,126,991.02,21.2,73,19.17,0.0,1016.96,205.1
2018-06-19 16:10,50.9117183333333,-96.9825333333333,3.0,3.8,129,990.99,21.2,77,19.22,0.0,1016.92,205.1
2018-06-19 16:20,50.9117216666667,-96.98253,3.0,3.5,130,990.99,21.2,76,19.27,0.0,1016.92,205.1
2018-06-19 16:30,50.9117216666667,-96.9825283333333,3.7,5.2,125,990.95,21.4,74,19.35,0.0,1016.87,205.1
2018-06-19 16:40,50.911725,-96.982505,3.0,3.8,113,990.95,22.3,71,19.43,0.0,1016.83,205.1
2018-06-19 16:50,50.911735,-96.9825416666667,3.9,6.7,114,990.96,22.6,70,19.48,0.0,1016.84,205.1
2018-06-19 17:00,50.9117216666667,-96.982525,5.7,6.4,128,990.93,21.6,69,19.53,0.0,1016.84,360.0
2018-06-19 17:10,50.9117283333333,-96.982525,5.9,6.5,127,990.89,21.5,67,19.62,0.0,1016.77,360.0
2018-06-19 17:20,50.9117266666667,-96.9825266666667,5.9,6.7,124,990.85,21.8,65,19.78,0.0,1016.72,360.0
2018-06-19 17:30,50.9117266666667,-96.9825283333333,6.2,7.2,127,990.83,21.8,66,19.90,0.0,1016.70,360.0
2018-06-19 17:40,50.9116983333333,-96.9825033333333,5.8,7.2,118,990.71,22.5,60,19.92,0.0,1016.58,360.0
2018-06-19 17:50,50.9117116666667,-96.98253,6.3,7.6,120,990.65,22.6,59,19.92,0.0,1016.49,360.0
2018-06-19 18:00,50.9117166666667,-96.982535,7.0,8.6,121,990.59,22.5,59,19.92,0.0,1016.43,192.9
2018-06-19 18:10,50.911715,-96.98253,6.7,7.7,122,990.49,22.3,63,19.89,0.0,1016.34,192.9
2018-06-19 18:20,50.911715,-96.9825283333333,7.5,8.9,121,990.38,22.5,65,19.89,0.0,1016.21,192.9
2018-06-19 18:30,50.9117183333333,-96.9825283333333,8.4,9.8,134,990.31,22.3,64,19.89,0.0,1016.11,192.9
2018-06-19 18:40,50.9117466666667,-96.9825816666667,9.8,10.8,126,990.11,22.6,52,19.91,0.0,1015.89,192.9
2018-06-19 18:50,50.9117366666667,-96.9825466666667,9.5,10.7,125,990.04,22.6,61,19.91,0.0,1015.85,192.9
2018-06-19 19:00,50.911725,-96.982525,8.5,9.6,137,990.00,22.5,64,19.92,0.0,1015.82,26.9
2018-06-19 19:10,50.91168,-96.9825416666667,8.1,9.1,141,989.97,22.4,68,19.94,0.0,1015.78,26.9
2018-06-19 19:20,50.9117416666667,-96.9825266666667,8.5,9.7,137,989.85,22.4,69,19.95,0.0,1015.66,26.9
2018-06-19 19:30,50.9117266666667,-96.9825316666667,8.6,9.6,139,989.78,22.5,68,19.98,0.0,1015.55,26.9
2018-06-19 19:40,50.9117283333333,-96.9825366666667,8.5,9.3,141,989.73,22.7,66,19.99,0.0,1015.49,26.9
2018-06-19 19:50,50.9117166666667,-96.982515,8.8,9.6,139,989.70,22.5,70,19.99,0.0,1015.47,26.9
2018-06-19 20:00,50.9117333333333,-96.9825283333333,10.3,11.8,142,989.68,22.6,67,20.00,0.0,1015.44,360.0
2018-06-19 20:10,50.911735,-96.98254,10.3,11.8,146,989.53,23.0,64,20.03,0.0,1015.27,360.0
2018-06-19 20:20,50.9117333333333,-96.9825366666667,10.4,11.8,145,989.48,23.3,59,20.06,0.0,1015.22,360.0
2018-06-19 20:30,50.9117316666667,-96.9825333333333,10.5,12.1,150,989.47,23.2,58,20.10,0.0,1015.19,360.0
2018-06-19 20:40,50.9117333333333,-96.9825316666667,11.7,12.5,143,989.38,23.4,56,20.13,0.0,1015.10,360.0
2018-06-19 20:50,50.911735,-96.98252,11.0,12.4,148,989.37,23.4,59,20.16,0.0,1015.09,360.0
2018-06-19 21:00,50.9117333333333,-96.9825166666667,10.4,11.5,150,989.30,23.3,59,20.18,0.0,1015.03,40.6
2018-06-19 21:10,50.9117333333333,-96.982525,9.6,11.2,148,989.22,23.3,62,20.21,0.0,1014.94,40.6
2018-06-19 21:20,50.9117316666667,-96.9825266666667,9.5,11.3,142,989.10,23.5,58,20.23,0.0,1014.80,40.6
2018-06-19 21:30,50.9117316666667,-96.9825233333333,9.0,10.6,146,989.02,23.4,64,20.26,0.0,1014.73,40.6
2018-06-19 21:40,50.9117333333333,-96.9825283333333,9.6,10.5,148,988.98,23.2,64,20.28,0.0,1014.70,40.6
2018-06-19 21:50,50.9117316666667,-96.9825266666667,9.4,10.5,148,988.91,23.4,62,20.31,0.0,1014.61,40.6
2018-06-19 22:00,50.9117316666667,-96.982525,10.3,11.7,153,988.81,23.3,64,20.34,0.0,1014.50,37.5
2018-06-19 22:10,50.91173,-96.9825266666667,10.9,12.1,156,988.64,23.4,59,20.38,0.0,1014.31,37.5
2018-06-19 22:20,50.91173,-96.9825266666667,11.0,12.5,156,988.58,23.8,51,20.42,0.0,1014.23,37.5
2018-06-19 22:30,50.91173,-96.9825266666667,10.5,13.0,159,988.53,24.2,47,20.46,0.0,1014.15,37.5
2018-06-19 22:40,50.91173,-96.9825266666667,8.6,10.9,163,988.50,24.4,50,20.49,0.0,1014.11,37.5
2018-06-19 22:50,50.91173,-96.9825266666667,9.3,11.6,161,988.48,24.3,48,20.51,0.0,1014.10,37.5
2018-06-19 23:00,50.91173,-96.9825283333333,9.1,11.8,162,988.43,24.3,49,20.54,0.0,1014.05,0.0
2018-06-19 23:10,50.91173,-96.98253,8.7,10.9,160,988.44,24.2,48,20.55,0.0,1014.05,0.0
2018-06-19 23:20,50.91173,-96.9825183333333,8.7,10.2,156,988.44,24.1,48,20.55,0.0,1014.06,0.0
2018-06-19 23:30,50.9117433333333,-96.982555,9.7,10.9,154,988.43,24.0,46,20.55,0.0,1014.06,0.0
2018-06-19 23:40,50.9117283333333,-96.982525,8.4,10.7,160,988.39,24.3,43,20.54,0.0,1014.00,0.0
2018-06-19 23:50,50.9117233333333,-96.9825183333333,7.6,9.8,163,988.32,24.3,44,20.54,0.0,1013.94,0.0
